[[{"header":{"parameterUnit":"m.s-1","parameterCategory":1,"la1":30.2991,"la2":30.254,"lo1":-89.0895,"lo2":-89.0444,"dy":0.0017,"dx":0.0017,"nx":28,"ny":28,"refTime":"2025-04-12T09:00:00:Z","depth":0,"parameterNumber":2,"parameterNumberName":"U-component_of_WINDS"},"data":[0,0,0,0,0,0,0,0,0,0,0,0,0,0,0,0,0,0,0,0,0,0,0,0,0,0,0,0,0,0,0,0,0,0,0,0,0,0,0,0,0,0,0,0,0,0,0,0,0,0,0,0,0,0,0,0,0,0,1.2997,1.2997,0,1.3,1.3,1.3,1.297,1.297,1.2969,1.2968,1.2972,1.2973,1.2974,0,0,0,0,0,0,0,0,0,0,0,0,0,1.2968,1.2968,1.2997,1.2997,1.2997,1.3,1.3,1.3,1.2971,1.297,1.2969,1.2968,1.2972,1.2973,1.2974,0,0,0,0,0,0,0,0,0,0,0,0,0,1.2977,1.2969,1.2997,1.2983,1.2982,1.3,1.3,1.3,1.2971,1.297,1.2968,1.2967,1.2971,1.2973,1.2974,1.3007,0,0,1.2978,1.2978,0,0,0,0,0,0,0,0,1.2976,1.2978,1.2985,1.2984,1.2983,1.2984,1.2991,1.3003,1.2971,1.2975,1.2968,1.2967,1.2977,1.2978,1.2981,1.3007,1.3007,1.2978,1.2979,1.2979,1.298,0,0,0,0,0,0,0,1.2976,1.2978,1.2999,1.2985,1.2984,1.2977,1.2977,1.2993,1.2983,1.2975,1.2972,1.2973,1.2976,1.298,1.2981,1.3007,1.2978,1.2979,1.298,1.2981,1.3062,1.3063,0,0,0,0,0,0,1.2977,1.2977,1.2998,1.2999,1.2976,1.2978,1.2978,1.2985,1.2983,1.2981,1.2974,1.2972,1.2978,1.2979,1.2981,1.302,1.2979,1.2981,1.2981,1.3061,1.3062,1.3064,0,0,0,0,0,0,1.2976,1.2979,1.2998,1.2987,1.2989,1.298,1.2988,1.2985,1.2989,1.2982,1.298,1.298,1.2977,1.2979,1.3001,1.302,1.2981,1.2982,1.3059,1.3061,1.3063,1.3098,0,0,0,0,0,0,1.2976,1.2979,1.2991,1.2988,1.299,1.3018,1.2989,1.2986,1.2991,1.2988,1.2987,1.2986,1.2976,1.2999,1.3002,1.3021,1.2983,1.3057,1.306,1.3063,1.3095,1.3101,1.3106,0,0,0,0,0,1.2975,1.3,1.2992,1.2994,1.3005,1.3019,1.302,1.3009,1.2993,1.3005,1.3001,1.2986,1.3017,1.3002,1.3005,1.3024,1.3056,1.3059,1.3062,1.3093,1.31,1.3106,0,0,0,0,0,0,1.3006,1.3,1.299,1.3015,1.3018,1.3014,1.3029,1.3016,1.3023,1.302,1.3006,1.3006,1.3031,1.303,1.3012,1.3057,1.3034,1.3038,1.3056,1.3063,1.3069,1.3068,1.2985,0,0,0,0,0,1.3016,1.3027,1.3022,1.3045,1.3047,1.3038,1.3043,1.3034,1.3037,1.3037,1.3035,1.3038,1.3049,1.3056,1.3065,1.3096,1.3095,1.3111,1.3116,1.3121,1.3124,1.3141,1.3148,1.3074,1.3074,1.3074,0,0,1.3036,1.3034,1.3042,1.3051,1.3052,1.3065,1.3039,1.3053,1.3063,1.304,1.306,1.3059,1.3061,1.3088,1.3099,1.3088,1.3145,1.3125,1.3128,1.3129,1.3145,1.3152,1.3158,1.3076,1.3076,1.3076,0,0,1.308,1.3079,1.3099,1.3101,1.3103,1.3097,1.3102,1.31,1.3098,1.3118,1.3102,1.3113,1.3132,1.3135,1.3139,1.3186,1.3172,1.3189,1.3218,1.3234,1.324,1.3245,1.3263,1.3269,1.3193,1.3193,1.3193,0,1.3105,1.3123,1.3111,1.3127,1.3132,1.3112,1.3132,1.3134,1.3139,1.3144,1.3131,1.3154,1.3155,1.3182,1.3194,1.3197,1.3203,1.3189,1.324,1.3245,1.325,1.3266,1.3273,1.3195,1.3195,1.3194,1.3194,0,1.3154,1.3168,1.3184,1.3189,1.3196,1.3214,1.3205,1.3213,1.3204,1.32,1.3222,1.3222,1.3232,1.3238,1.3229,1.3264,1.3257,1.3243,1.3219,1.3259,1.3275,1.3281,1.3198,1.3197,1.3197,1.3196,0,0,1.3216,1.3216,1.3222,1.3225,1.3226,1.3236,1.3255,1.3264,1.3272,1.3276,1.3292,1.3309,1.3296,1.33,1.3292,1.3307,1.3345,1.329,1.329,1.3301,1.3385,1.3396,1.3403,1.3336,1.3337,1.3338,1.3385,0,1.3259,1.3289,1.3279,1.331,1.3323,1.3305,1.3321,1.3324,1.3321,1.3332,1.3329,1.3342,1.3323,1.3326,1.334,1.3337,1.3362,1.3334,1.3351,1.3352,1.335,1.3411,1.3422,1.3466,1.3391,1.3392,1.3392,0,1.3313,1.332,1.3352,1.3352,1.3357,1.3372,1.338,1.3391,1.3395,1.3392,1.3398,1.3387,1.3406,1.3383,1.3409,1.339,1.3397,1.3397,1.3399,1.3399,1.3374,1.3414,1.348,1.3486,1.3402,1.3401,1.34,0,1.3355,1.3373,1.3395,1.3398,1.3399,1.3409,1.341,1.3413,1.342,1.3428,1.3432,1.3442,1.3448,1.3456,1.3449,1.3433,1.3477,1.3453,1.3475,1.3475,1.3484,1.3484,1.3552,1.3489,1.3489,1.3489,1.3489,0,1.3404,1.3424,1.3414,1.3427,1.345,1.3439,1.3462,1.3462,1.3464,1.3478,1.3463,1.3477,1.3466,1.3479,1.3473,1.3496,1.3499,1.3498,1.3496,1.3499,1.3499,1.3502,1.3499,1.3491,1.349,1.349,1.349,0,1.3455,1.3448,1.3471,1.3471,1.3471,1.3488,1.3488,1.3501,1.3498,1.3515,1.3519,1.3514,1.3528,1.3522,1.3537,1.3533,1.3563,1.3557,1.3561,1.356,1.3582,1.358,1.3655,1.3665,1.3596,1.3596,1.3597,0,1.3486,1.3501,1.3503,1.3511,1.3513,1.3526,1.3533,1.3524,1.3532,1.3538,1.3551,1.3564,1.3574,1.3598,1.3596,1.3608,1.3602,1.3628,1.3604,1.3607,1.3603,1.3602,1.3604,1.3632,1.3633,1.3634,1.3634,0,1.3542,1.3539,1.3549,1.3559,1.3568,1.3576,1.3582,1.3589,1.3581,1.3591,1.3605,1.3613,1.3629,1.3642,1.3653,1.3655,1.3644,1.3642,1.3648,1.3651,1.3653,1.3652,1.3574,1.364,1.3639,1.3639,1.3639,1.3639,1.3584,1.3597,1.3601,1.3614,1.3618,1.3624,1.3636,1.3635,1.3647,1.3659,1.3653,1.367,1.3675,1.3689,1.3693,1.3706,1.3696,1.3705,1.3707,1.3709,1.3712,1.3651,1.3708,1.3708,1.3708,1.3708,1.3708,0,1.364,1.3642,1.3653,1.3663,1.3673,1.3662,1.3669,1.3678,1.3693,1.3699,1.3709,1.3727,1.374,1.374,1.3753,1.3764,1.376,1.3768,1.3767,1.3768,1.372,1.3714,1.3772,1.3772,1.3772,1.3772,1.3772,1.3772,1.367,1.3692,1.3689,1.3714,1.3716,1.3732,1.3737,1.3744,1.3748,1.3768,1.378,1.3779,1.3783,1.3797,1.3809,1.3809,1.3814,1.3825,1.3823,1.3778,1.3771,1.3765,1.3759,1.3826,1.3826,1.3869,1.387,1.387]},{"header":{"parameterUnit":"m.s-1","parameterCategory":1,"la1":30.2991,"la2":30.254,"lo1":-89.0895,"lo2":-89.0444,"dy":0.0017,"dx":0.0017,"nx":28,"ny":28,"refTime":"2025-04-12T09:00:00:Z","depth":0,"parameterNumber":3,"parameterNumberName":"V-component_of_WINDS"},"data":[0,0,0,0,0,0,0,0,0,0,0,0,0,0,0,0,0,0,0,0,0,0,0,0,0,0,0,0,0,0,0,0,0,0,0,0,0,0,0,0,0,0,0,0,0,0,0,0,0,0,0,0,0,0,0,0,0,0,-4.0845,-4.0846,0,-4.0962,-4.0963,-4.0964,-4.0955,-4.0953,-4.0951,-4.0949,-4.1064,-4.1069,-4.1074,0,0,0,0,0,0,0,0,0,0,0,0,0,-4.0609,-4.0614,-4.0845,-4.0846,-4.0848,-4.0961,-4.0963,-4.0965,-4.0955,-4.0953,-4.0951,-4.0949,-4.1063,-4.1068,-4.1074,0,0,0,0,0,0,0,0,0,0,0,0,0,-4.0717,-4.0615,-4.0844,-4.0857,-4.0859,-4.0961,-4.0963,-4.0965,-4.0955,-4.0953,-4.095,-4.0948,-4.1061,-4.1068,-4.1075,-4.1171,0,0,-4.1096,-4.1099,0,0,0,0,0,0,0,0,-4.0711,-4.0726,-4.0853,-4.0856,-4.0859,-4.0941,-4.0922,-4.1034,-4.0956,-4.0919,-4.0949,-4.0946,-4.1025,-4.1035,-4.1063,-4.1177,-4.1181,-4.1097,-4.1101,-4.1104,-4.1106,0,0,0,0,0,0,0,-4.0704,-4.0721,-4.0891,-4.0855,-4.0858,-4.0855,-4.0867,-4.0943,-4.0985,-4.0922,-4.0921,-4.0935,-4.1026,-4.1056,-4.1065,-4.1183,-4.1097,-4.1103,-4.1107,-4.111,-4.1382,-4.1385,0,0,0,0,0,0,-4.0694,-4.0715,-4.0887,-4.0894,-4.0777,-4.0861,-4.0875,-4.0917,-4.0984,-4.0992,-4.0938,-4.0935,-4.1045,-4.1057,-4.1069,-4.1186,-4.1104,-4.1111,-4.1115,-4.1379,-4.1383,-4.1386,0,0,0,0,0,0,-4.0689,-4.0709,-4.0882,-4.0804,-4.0826,-4.0868,-4.0915,-4.0921,-4.0951,-4.0996,-4.1003,-4.0961,-4.1043,-4.1059,-4.1146,-4.119,-4.1114,-4.112,-4.1376,-4.138,-4.1385,-4.1421,0,0,0,0,0,0,-4.0682,-4.0708,-4.0745,-4.0805,-4.083,-4.0959,-4.0918,-4.0925,-4.0963,-4.096,-4.102,-4.1027,-4.1043,-4.1136,-4.1153,-4.1198,-4.1126,-4.1372,-4.1378,-4.1383,-4.1416,-4.1427,-4.1435,0,0,0,0,0,-4.0674,-4.075,-4.0747,-4.0768,-4.0879,-4.0961,-4.0975,-4.0993,-4.0967,-4.1005,-4.1034,-4.1025,-4.1183,-4.1145,-4.1164,-4.1212,-4.1369,-4.1376,-4.1383,-4.1412,-4.1425,-4.1435,0,0,0,0,0,0,-4.0692,-4.0758,-4.0756,-4.0854,-4.0902,-4.0959,-4.1008,-4.1006,-4.1061,-4.1056,-4.1074,-4.1088,-4.1175,-4.1203,-4.1159,-4.1309,-4.1272,-4.1283,-4.1288,-4.13,-4.131,-4.13,-4.1132,0,0,0,0,0,-4.0708,-4.0771,-4.0824,-4.0906,-4.093,-4.0965,-4.1002,-4.1011,-4.1061,-4.1081,-4.1117,-4.1165,-4.1225,-4.1264,-4.1322,-4.1421,-4.1433,-4.1464,-4.1473,-4.1481,-4.1489,-4.1543,-4.1557,-4.1408,-4.1408,-4.1408,0,0,-4.074,-4.0784,-4.0822,-4.0911,-4.0949,-4.1013,-4.0982,-4.105,-4.1097,-4.1091,-4.1176,-4.1204,-4.1258,-4.1352,-4.1395,-4.1377,-4.1534,-4.1489,-4.1495,-4.15,-4.1552,-4.1566,-4.1578,-4.1413,-4.1412,-4.1411,0,0,-4.0832,-4.0872,-4.0944,-4.0984,-4.1044,-4.1067,-4.1084,-4.1142,-4.1161,-4.1247,-4.1244,-4.1299,-4.1403,-4.1442,-4.1476,-4.1584,-4.1577,-4.1602,-4.1651,-4.1703,-4.1715,-4.1726,-4.1764,-4.1777,-4.1611,-4.1611,-4.1612,0,-4.0864,-4.0961,-4.0981,-4.1051,-4.1089,-4.1089,-4.1162,-4.1199,-4.1274,-4.13,-4.128,-4.1411,-4.1448,-4.155,-4.1577,-4.1604,-4.1624,-4.1595,-4.1712,-4.1723,-4.1733,-4.1769,-4.1784,-4.1614,-4.1614,-4.1613,-4.1613,0,-4.0998,-4.1065,-4.1116,-4.1191,-4.1235,-4.1306,-4.1336,-4.1378,-4.1385,-4.1409,-4.1496,-4.1541,-4.1608,-4.1633,-4.1639,-4.1737,-4.1724,-4.1708,-4.1671,-4.1749,-4.1784,-4.1798,-4.1618,-4.1617,-4.1616,-4.1615,0,0,-4.1102,-4.1188,-4.1207,-4.1241,-4.1307,-4.1359,-4.143,-4.1497,-4.1533,-4.1585,-4.1644,-4.1733,-4.1719,-4.1757,-4.1768,-4.1814,-4.1896,-4.1792,-4.1794,-4.1809,-4.2006,-4.2016,-4.2032,-4.1893,-4.1896,-4.1898,-4.2001,0,-4.12,-4.1327,-4.1347,-4.1458,-4.152,-4.1522,-4.1583,-4.163,-4.1655,-4.1711,-4.1738,-4.1801,-4.1778,-4.1801,-4.1847,-4.1877,-4.1936,-4.187,-4.1947,-4.1949,-4.1932,-4.205,-4.2062,-4.2157,-4.2014,-4.2017,-4.2018,0,-4.133,-4.1388,-4.1505,-4.1564,-4.1591,-4.1646,-4.171,-4.1764,-4.1817,-4.1832,-4.1875,-4.1881,-4.1953,-4.1915,-4.2014,-4.1969,-4.2002,-4.2021,-4.2025,-4.2032,-4.1987,-4.2059,-4.2187,-4.2201,-4.204,-4.2038,-4.2037,0,-4.1393,-4.15,-4.1584,-4.1613,-4.1685,-4.1723,-4.1754,-4.1805,-4.1845,-4.1901,-4.1926,-4.1989,-4.2023,-4.2071,-4.2093,-4.2063,-4.2191,-4.2154,-4.2204,-4.2204,-4.223,-4.2227,-4.2364,-4.2253,-4.2253,-4.2253,-4.2252,0,-4.1499,-4.1571,-4.1614,-4.1665,-4.1745,-4.1769,-4.1847,-4.1877,-4.1923,-4.1979,-4.1984,-4.2037,-4.2064,-4.212,-4.2138,-4.2217,-4.2233,-4.2246,-4.2249,-4.2245,-4.2243,-4.2265,-4.2259,-4.2257,-4.2256,-4.2255,-4.2254,0,-4.1582,-4.1615,-4.1706,-4.1767,-4.1784,-4.184,-4.1892,-4.1941,-4.1967,-4.2039,-4.2057,-4.2097,-4.2164,-4.2192,-4.2273,-4.2285,-4.2376,-4.2375,-4.2358,-4.2359,-4.2407,-4.2402,-4.2561,-4.2583,-4.246,-4.2461,-4.2462,0,-4.1647,-4.1703,-4.177,-4.1809,-4.1842,-4.1905,-4.1946,-4.1972,-4.2014,-4.208,-4.2121,-4.2189,-4.2244,-4.2351,-4.2386,-4.2448,-4.2448,-4.25,-4.2457,-4.2451,-4.2448,-4.2443,-4.2449,-4.2507,-4.2508,-4.2509,-4.251,0,-4.1758,-4.1772,-4.1832,-4.1898,-4.1947,-4.2,-4.2051,-4.2083,-4.2116,-4.2163,-4.2233,-4.2276,-4.236,-4.2427,-4.2492,-4.2522,-4.2521,-4.2524,-4.2538,-4.2533,-4.2521,-4.2527,-4.2378,-4.2519,-4.2518,-4.2518,-4.2517,-4.2517,-4.1834,-4.1883,-4.1939,-4.2005,-4.2047,-4.2095,-4.2145,-4.2179,-4.2238,-4.2309,-4.2321,-4.2395,-4.2447,-4.2535,-4.2568,-4.2626,-4.2612,-4.2634,-4.2639,-4.2643,-4.2646,-4.2513,-4.2638,-4.2637,-4.2637,-4.2637,-4.2637,0,-4.1944,-4.1981,-4.2042,-4.2115,-4.2167,-4.2165,-4.2222,-4.2265,-4.2331,-4.2381,-4.2436,-4.2516,-4.2581,-4.2622,-4.2687,-4.2725,-4.2727,-4.2741,-4.2738,-4.2745,-4.2655,-4.2635,-4.2739,-4.2739,-4.2739,-4.2739,-4.2739,-4.2739,-4.2008,-4.2091,-4.2112,-4.2216,-4.2251,-4.2326,-4.2358,-4.2402,-4.2442,-4.2532,-4.2587,-4.2615,-4.2661,-4.273,-4.2789,-4.28,-4.2823,-4.2838,-4.2847,-4.2762,-4.2751,-4.2741,-4.2723,-4.2844,-4.2844,-4.2933,-4.2934,-4.2934]}]]